Theta_e
311 311 313 314 314 316 316 314 315 316 316 316 314 313 313 311 311 316 317 316 317 316 315 318 321 326 328 328 328 327 328 329 331 332 330 334 339 339 339 340 341 340 340 342 342 341 341 341 341 341 341 341 341 341 341 341 341 340 340 340 340 339 339 339 339 339 340 341 341 342 342 341 340 340 340 339 339 340 340 339 339 338 338 339 340 339
312 310 313 315 314 315 316 315 316 316 317 316 314 312 312 312 312 317 317 316 317 315 315 319 322 326 329 329 330 330 331 331 332 335 335 337 338 337 337 337 337 336 336 337 337 337 336 336 338 339 340 341 341 341 340 340 340 340 340 340 339 339 338 339 338 339 340 340 341 341 341 340 339 340 340 339 339 339 339 339 338 338 337 338 339 339
312 311 312 314 314 315 315 316 316 317 317 317 315 311 310 312 313 316 316 316 317 316 318 322 324 326 329 330 332 332 334 334 334 335 335 335 335 333 333 333 333 332 331 331 331 332 331 331 332 335 337 338 338 339 339 339 339 339 340 339 339 339 339 339 339 339 340 340 340 340 340 339 339 339 338 339 339 338 338 338 337 337 337 337 338 338
311 311 312 313 314 315 316 315 315 316 317 317 314 310 309 312 313 311 314 318 318 319 322 324 325 328 331 331 332 332 332 332 331 331 331 331 331 330 329 329 329 329 328 327 327 329 329 328 329 331 333 334 334 335 335 337 338 338 338 338 339 339 339 339 339 339 339 339 339 339 339 339 338 337 337 338 338 338 338 338 337 337 337 337 336 337
312 312 313 313 313 315 316 315 316 316 315 316 314 312 310 313 313 311 315 318 317 320 323 323 322 325 328 330 331 331 331 330 329 329 329 329 329 329 327 327 327 327 326 325 325 325 327 326 327 328 329 331 331 331 332 333 334 335 335 336 337 339 339 339 339 339 338 339 339 339 339 339 338 338 338 338 338 338 338 338 337 338 337 337 337 337
314 313 313 313 313 314 315 315 316 316 313 312 314 314 314 314 315 315 316 315 312 315 320 321 317 319 325 328 330 330 330 330 328 329 329 327 327 327 327 326 325 325 324 324 324 324 324 325 325 326 327 328 328 329 329 330 331 332 333 334 335 336 337 338 338 339 339 338 338 339 339 338 339 338 338 338 337 337 338 337 337 337 337 337 337 336
315 314 312 313 314 314 316 316 316 316 312 310 313 315 316 316 315 315 314 312 310 312 320 321 315 316 321 325 330 331 330 330 328 328 328 326 326 325 325 324 324 324 323 323 323 323 324 324 325 326 325 326 326 327 328 328 329 330 331 333 334 335 336 336 337 338 338 338 338 338 338 338 338 338 337 337 338 338 338 337 336 337 337 336 337 337
315 314 312 314 316 315 315 315 315 315 311 310 315 316 315 315 315 315 315 312 312 314 319 320 315 315 320 326 330 331 330 330 329 328 327 325 324 324 323 323 323 323 323 323 322 323 324 324 325 325 324 324 325 325 326 327 327 328 329 331 332 333 334 335 335 336 337 337 337 337 337 337 338 338 337 337 338 338 338 338 337 338 336 335 337 337
314 314 313 314 316 316 315 314 314 314 312 314 316 315 315 316 316 316 315 312 314 314 313 316 315 313 319 328 331 331 330 330 330 328 326 324 323 323 323 323 322 322 322 322 322 323 324 324 324 324 324 324 324 325 325 325 326 326 327 328 329 331 332 332 333 334 336 336 337 337 338 338 339 338 338 337 337 337 337 337 337 338 337 337 338 338
313 314 315 315 315 315 314 313 315 314 313 315 316 316 315 315 316 316 315 312 312 313 311 314 315 311 318 328 329 330 329 329 330 328 326 324 323 322 322 322 322 322 322 322 322 323 323 323 324 324 324 323 323 324 324 324 324 325 325 326 327 328 329 330 330 332 334 334 335 336 337 338 339 339 338 337 337 338 338 338 337 337 337 337 337 337
314 315 316 316 315 314 314 314 315 314 314 316 316 315 314 314 315 314 314 312 309 311 311 312 315 311 317 328 329 328 330 329 329 327 325 324 322 322 322 321 321 321 321 321 322 322 322 322 322 323 323 323 323 323 323 323 323 324 324 325 326 326 326 328 329 330 331 332 333 334 335 336 336 337 337 337 337 338 338 338 337 337 336 336 336 336
315 316 316 316 315 314 314 314 315 315 314 315 316 314 311 311 312 311 311 312 310 310 309 311 315 310 313 324 328 328 331 329 328 327 325 324 323 322 322 321 321 320 320 320 320 321 321 321 321 321 322 322 322 322 322 322 323 323 323 324 324 324 325 326 326 328 329 330 331 332 333 334 335 335 335 335 336 337 337 337 337 337 336 335 336 336
314 315 315 315 315 314 314 313 313 314 314 315 314 312 310 309 310 311 310 310 310 310 310 311 313 309 314 326 330 330 331 328 326 325 324 324 323 322 321 320 320 319 319 319 318 319 319 320 320 320 320 320 321 320 321 321 321 322 322 322 323 323 323 324 324 326 327 328 328 329 331 332 333 334 334 334 334 335 335 335 336 336 334 333 335 336
312 315 314 314 314 314 314 312 311 312 313 313 312 310 310 309 312 313 311 310 311 309 311 312 311 315 326 333 332 330 328 326 325 323 322 322 322 321 319 318 318 317 317 317 317 317 318 318 318 318 319 319 319 320 320 320 320 320 321 321 322 322 322 323 323 324 325 326 326 327 329 330 331 332 333 333 333 333 334 334 334 335 334 333 335 336
310 314 314 314 314 313 314 313 313 314 312 313 313 312 310 309 312 312 311 311 310 309 311 311 312 320 333 334 330 328 325 323 323 321 321 321 319 319 317 316 317 316 316 316 315 317 317 317 317 318 318 318 318 318 318 319 319 319 320 320 321 321 321 321 322 323 324 324 325 326 327 328 328 329 330 331 332 332 333 333 333 334 334 333 334 335
310 312 314 315 314 314 314 314 315 315 312 313 314 311 310 311 312 311 311 312 311 311 311 313 320 328 333 331 327 326 324 322 322 321 320 319 318 318 317 316 316 315 315 315 315 316 317 317 317 317 317 317 318 318 318 318 318 319 319 319 320 320 320 320 320 321 322 322 323 324 325 326 326 327 328 329 330 330 332 333 333 333 333 332 333 333
310 311 314 314 314 314 314 314 315 313 312 312 311 309 311 314 314 310 311 314 312 311 311 317 330 333 332 332 328 324 325 323 322 321 320 319 318 317 317 316 315 315 315 315 315 315 316 317 317 317 317 317 317 317 317 317 318 318 318 318 319 319 319 319 319 319 320 321 321 323 323 323 324 325 326 328 329 329 330 331 332 333 332 332 333 333
312 312 313 314 313 314 314 314 314 313 313 312 309 310 313 314 315 311 311 312 311 312 314 320 333 335 333 334 330 325 325 324 322 322 320 319 318 316 316 315 315 315 315 315 315 315 316 316 316 316 316 316 316 316 317 317 317 317 317 317 318 318 318 318 318 318 319 319 320 321 321 321 322 323 325 326 327 328 329 331 332 332 332 333 333 333
314 311 312 314 313 313 314 313 312 314 313 313 311 313 313 310 310 309 310 312 311 313 315 319 330 333 329 331 330 327 326 324 322 322 321 319 318 316 316 315 315 315 315 315 315 315 316 316 316 316 316 316 316 316 316 316 316 317 317 317 317 317 317 317 318 318 318 319 319 319 319 320 320 321 323 324 325 326 328 330 331 332 332 333 333 333
315 312 311 314 313 313 313 311 311 312 313 314 313 313 312 310 310 309 309 312 311 311 315 316 322 327 325 328 330 327 326 325 323 322 321 320 318 316 315 315 315 315 315 315 314 315 316 316 316 316 315 316 316 316 316 316 316 316 316 316 316 316 317 317 317 317 318 318 318 318 319 319 319 319 320 321 322 324 326 328 329 330 331 332 332 332
315 314 312 314 313 312 312 310 312 313 312 312 312 311 311 310 312 312 310 311 310 310 313 313 317 326 329 329 328 326 326 324 323 322 321 318 316 315 315 315 315 315 315 315 314 315 316 315 315 315 315 315 315 315 315 315 315 315 315 315 316 316 316 316 316 316 317 317 317 318 318 318 318 318 319 319 320 321 323 324 325 326 327 329 331 331
314 314 313 313 311 310 311 312 314 314 313 313 312 312 311 310 311 311 311 310 308 310 311 310 322 332 331 328 327 325 325 323 321 321 319 317 315 314 314 314 315 315 314 314 314 315 315 315 314 314 314 314 314 314 314 314 315 315 315 315 315 315 315 315 315 316 316 316 317 317 317 317 317 317 317 317 317 318 319 320 321 323 324 326 327 329
316 315 314 312 311 311 313 314 314 315 315 314 313 313 313 312 311 309 310 310 308 310 308 310 327 333 327 326 327 324 322 322 320 319 318 316 315 314 314 314 314 314 314 314 314 315 314 314 314 313 313 313 313 313 313 313 313 314 314 314 314 314 314 314 315 315 315 316 316 316 316 316 316 316 316 316 316 316 317 318 319 320 322 323 325 327
317 315 313 313 312 312 314 314 314 316 317 314 313 314 313 313 313 311 312 312 309 311 308 312 330 332 323 323 324 321 320 319 318 318 316 316 315 314 314 314 313 314 313 313 314 314 313 313 312 312 311 311 311 311 311 311 311 312 312 312 313 313 314 314 314 314 315 315 315 315 315 315 315 315 315 315 315 315 315 316 318 319 319 320 322 324
314 314 314 314 313 314 316 316 314 315 316 315 314 315 313 314 314 314 315 312 312 313 308 313 330 330 322 320 319 317 317 317 316 316 315 315 315 314 314 314 313 314 313 312 313 313 312 312 311 311 310 310 310 310 309 309 309 310 310 311 311 312 313 313 313 314 314 314 314 314 314 314 314 314 314 314 314 314 314 315 315 316 317 319 320 322
314 315 314 314 313 315 316 315 314 313 315 316 315 315 315 314 315 314 312 311 313 313 308 315 329 327 321 319 318 316 316 314 314 314 314 314 314 314 314 314 313 313 313 312 312 311 312 311 311 310 310 309 309 309 309 309 308 308 308 309 310 311 312 312 313 313 313 313 314 314 313 313 313 313 313 313 313 313 313 314 314 314 315 317 319 320
315 318 320 319 318 316 315 315 316 315 314 314 314 315 315 316 317 315 311 311 313 313 315 323 327 324 320 319 317 316 314 313 313 313 312 313 313 314 314 314 313 313 312 311 311 310 311 311 311 310 310 309 309 309 309 308 308 308 308 307 308 310 311 311 312 312 313 313 313 313 313 312 312 312 312 312 312 312 312 312 313 313 313 314 316 317
317 321 325 326 323 320 319 319 318 316 314 313 314 316 317 318 320 317 312 314 315 315 323 327 325 322 321 318 316 315 313 312 312 311 312 312 312 313 313 313 313 312 310 310 310 309 310 310 311 310 310 309 309 309 309 309 308 308 307 307 307 308 310 310 311 311 312 312 312 312 312 312 311 312 312 311 311 311 311 311 311 311 311 312 313 313
317 320 325 326 322 320 322 321 319 318 318 316 315 317 318 317 319 317 315 319 321 319 325 327 324 322 320 317 315 313 312 311 311 310 311 311 311 312 312 312 311 310 309 309 309 309 309 309 310 310 309 309 309 309 309 308 308 308 307 307 307 307 308 309 310 311 311 311 311 311 311 311 311 311 311 311 310 310 310 310 310 310 309 310 310 310
317 321 325 324 321 320 321 322 321 320 322 322 319 319 320 319 320 322 322 324 325 326 327 326 323 322 318 315 313 312 310 310 309 309 310 310 310 310 310 310 309 308 308 308 308 308 308 309 309 309 309 309 308 308 308 308 308 307 307 307 306 307 308 309 309 310 310 310 310 310 310 310 310 310 310 310 310 310 309 309 309 309 308 308 308 307
321 322 325 323 322 322 321 321 322 322 324 326 325 324 325 325 325 328 328 327 327 328 326 323 320 318 315 312 311 309 308 309 309 309 310 310 310 310 309 308 307 307 307 307 307 307 308 308 308 308 308 308 308 307 307 309 308 307 307 307 306 306 307 308 309 309 309 309 309 309 309 309 309 309 309 309 309 309 309 308 308 308 307 307 307 306
322 323 326 324 323 324 323 322 324 324 324 325 325 325 326 326 327 327 327 328 328 325 321 319 317 314 312 310 308 308 308 308 308 308 308 309 309 308 308 307 307 307 307 307 306 306 307 307 307 307 308 307 307 308 308 308 308 307 307 306 306 306 306 307 308 308 309 309 308 308 308 308 308 308 308 308 308 308 308 308 307 307 306 306 306 305
320 322 325 323 322 325 325 324 325 322 321 323 322 322 323 324 325 325 324 325 324 322 321 320 316 311 309 309 308 308 308 308 307 307 307 308 308 307 307 306 306 306 306 306 306 305 306 307 306 307 307 306 307 308 307 307 307 306 306 306 306 306 306 306 307 308 308 308 308 308 308 308 308 308 308 308 308 308 308 307 307 306 306 306 305 305
320 320 323 321 322 324 326 325 324 322 321 321 318 318 321 322 322 323 322 321 319 318 317 316 312 309 309 308 308 307 307 307 307 307 307 307 307 306 306 306 306 306 306 306 306 306 306 306 306 306 305 306 307 308 307 306 306 306 306 306 306 305 305 306 306 307 307 307 307 307 307 307 307 307 307 307 307 307 307 307 307 306 306 306 305 305
320 319 320 320 320 323 324 325 327 326 321 318 316 316 319 319 319 319 318 318 317 315 313 311 309 309 308 307 307 306 306 306 306 306 306 306 306 306 307 306 306 306 306 306 306 307 307 306 305 305 305 307 308 307 306 306 306 305 305 305 305 305 305 305 305 306 306 306 306 306 306 306 306 306 306 306 306 306 306 306 306 306 306 306 305 305
320 318 320 320 319 321 323 324 326 323 318 316 316 316 317 317 317 317 316 315 315 314 312 310 308 308 307 306 306 305 305 305 304 304 305 305 305 306 306 306 305 305 305 305 306 306 306 304 304 305 305 306 307 305 305 305 305 305 305 305 305 305 305 305 305 305 305 305 305 305 305 305 305 306 306 305 305 305 305 305 305 305 306 306 306 305
320 318 319 320 319 319 321 321 320 319 318 317 317 317 317 318 318 318 316 314 313 312 310 309 307 306 305 305 304 304 304 304 303 303 303 304 305 305 305 305 305 304 304 304 304 304 304 303 303 304 304 305 305 304 304 304 304 304 304 304 305 305 304 304 304 304 305 304 304 304 304 305 305 305 305 305 305 305 305 304 304 304 304 305 305 305
320 320 320 320 319 318 320 321 320 321 322 319 317 316 317 318 318 317 316 313 312 310 309 307 306 305 304 304 304 303 304 305 304 303 303 303 304 305 305 305 304 304 303 302 302 302 302 302 302 303 303 304 304 304 304 304 304 304 304 304 304 304 304 304 304 304 304 304 304 304 303 304 304 304 304 304 304 304 304 304 304 304 304 304 304 304
321 321 319 318 318 318 320 321 321 321 321 319 317 316 316 317 317 316 318 316 312 309 308 307 306 305 305 304 304 304 306 307 305 303 302 302 303 304 304 304 304 303 303 302 302 302 302 302 302 302 303 303 303 303 303 303 303 303 303 304 303 303 303 303 303 303 303 303 303 303 303 303 303 303 304 304 304 303 303 303 303 303 303 303 303 303
320 320 318 317 318 318 319 319 319 318 318 318 317 316 315 316 317 318 321 318 312 309 309 307 306 306 305 305 305 306 308 309 305 302 302 302 303 303 303 303 303 303 303 302 302 302 302 302 302 302 302 303 303 302 302 303 303 303 303 303 303 303 303 303 303 302 302 302 302 302 302 302 302 303 303 303 303 303 302 303 302 302 302 302 302 302
318 318 318 317 317 317 317 317 317 317 317 316 316 315 314 315 317 319 319 316 310 309 308 308 307 307 306 306 307 308 308 306 303 302 302 303 303 303 303 303 303 302 302 301 302 302 301 302 302 302 302 302 302 302 302 302 303 303 303 303 303 303 302 302 302 302 302 302 302 302 302 301 301 302 302 302 302 302 302 302 302 302 302 302 302 302
316 316 315 315 315 315 315 316 317 316 316 314 314 314 314 316 317 317 315 312 309 308 308 308 308 307 307 307 307 306 305 303 302 302 303 303 303 303 303 303 302 301 300 300 301 301 301 302 302 302 302 302 302 302 302 302 302 303 303 303 303 302 302 302 302 302 301 301 301 301 301 301 301 301 301 301 302 302 302 301 301 301 301 301 301 301
316 315 313 313 315 314 313 315 317 317 315 313 314 314 314 315 315 314 312 310 309 308 308 307 307 307 307 307 305 304 303 303 303 303 303 304 304 304 303 303 301 301 300 300 301 301 302 302 302 302 302 302 302 302 302 302 302 302 302 303 303 302 302 302 301 301 301 301 301 301 301 301 301 300 300 300 301 301 301 300 300 300 301 301 301 301
317 316 313 314 316 315 314 315 316 315 314 313 314 314 313 313 313 312 311 310 309 308 307 306 306 306 306 305 304 304 304 303 303 303 303 303 304 303 302 301 301 301 301 301 301 302 302 302 302 302 302 302 302 302 302 302 302 302 302 302 302 302 302 302 301 301 301 301 301 301 300 301 301 300 300 300 300 300 300 300 299 299 299 300 300 300
316 316 315 315 313 314 314 314 313 313 312 313 313 313 312 312 312 311 311 310 309 308 307 307 306 306 305 304 304 304 304 303 303 303 303 303 303 302 301 301 302 302 301 301 301 301 301 302 302 301 301 302 302 301 301 301 301 301 301 302 302 302 301 301 301 301 300 301 301 301 300 300 300 300 300 300 299 299 299 299 298 298 298 299 299 300
314 315 315 314 311 310 311 311 312 312 311 312 312 312 312 311 311 310 310 309 308 308 307 307 306 305 304 304 304 304 304 303 303 303 302 302 301 301 301 301 301 301 301 301 301 301 301 301 301 301 301 301 300 300 300 301 301 301 301 302 302 301 301 301 301 300 300 300 300 300 300 300 300 300 300 300 299 299 298 298 298 298 297 298 298 299
313 314 315 313 312 312 312 310 311 311 311 311 310 311 310 311 310 310 309 308 308 307 307 306 306 305 305 304 304 304 303 303 302 302 301 301 301 300 301 301 301 300 300 300 300 300 301 301 300 300 300 300 300 300 300 300 300 300 301 302 301 301 301 300 300 300 300 300 300 300 300 300 299 300 300 300 300 299 298 298 298 298 297 297 297 298
313 314 314 313 313 313 311 310 310 310 310 310 310 310 310 310 309 309 308 308 307 307 307 307 306 305 305 305 304 303 303 302 302 301 300 300 301 300 300 300 300 300 300 301 301 301 301 300 300 299 299 300 299 300 300 301 300 300 301 301 301 301 301 300 300 300 300 300 300 300 300 300 299 299 299 300 300 299 299 298 298 298 297 297 297 297
312 312 312 312 311 310 309 309 310 310 309 309 309 309 309 309 309 308 307 307 306 306 306 306 306 306 305 304 304 304 303 302 302 301 300 300 300 300 300 300 299 300 300 301 301 301 301 300 299 299 299 299 300 300 300 301 301 301 301 301 301 301 301 300 300 300 300 300 299 299 300 300 299 299 299 299 300 300 298 297 297 298 297 296 295 295
312 312 311 310 310 310 309 309 310 310 309 308 308 308 309 308 308 307 307 306 306 306 305 305 305 305 305 304 304 304 303 301 301 301 301 300 300 300 300 300 300 300 300 300 300 300 300 299 299 300 300 300 300 300 301 301 301 301 301 301 301 301 301 301 300 300 300 300 299 299 300 300 300 299 299 299 299 300 299 297 297 297 297 296 295 295
312 312 311 311 312 312 310 309 310 310 309 308 307 308 308 307 307 307 306 306 306 306 306 305 304 304 304 304 304 303 302 302 301 301 300 300 300 300 300 300 300 300 300 300 300 300 300 299 300 300 300 301 301 301 301 301 301 301 301 301 301 301 300 300 300 300 300 300 299 299 299 300 300 299 299 299 299 299 299 299 298 297 297 296 295 295
Wind_Speed
10 9 11 11 12 14 16 16 16 12 9 11 14 11 9 10 10 12 15 18 18 13 14 16 13 11 10 10 8 8 7 5 6 5 5 8 10 8 9 9 10 11 10 12 14 14 13 10 8 6 5 6 5 4 3 1 1 1 0 1 1 0 2 4 6 7 8 9 9 9 9 9 10 10 10 10 10 9 8 7 7 8 9 9 10 10
11 11 13 15 15 17 16 16 17 12 8 9 12 11 10 11 9 10 13 16 18 14 11 15 14 11 9 10 9 9 8 7 7 6 6 11 11 9 10 12 12 11 10 13 16 15 15 13 11 10 8 8 7 7 7 5 4 3 1 1 1 1 4 5 6 7 8 9 9 8 8 9 9 10 9 9 9 8 8 8 8 9 10 11 10 9
12 12 15 17 16 16 15 15 16 12 9 8 9 10 9 10 9 10 12 15 15 10 7 12 12 10 9 10 10 10 11 11 10 10 10 11 10 9 10 11 11 10 11 12 14 16 16 17 16 15 14 13 12 12 12 9 7 6 5 3 1 2 4 5 5 7 7 8 8 8 9 9 9 10 8 8 9 8 9 10 11 11 11 12 11 10
10 11 16 17 16 15 14 17 16 11 9 9 9 9 8 12 12 10 12 14 11 7 9 13 10 8 9 10 10 11 12 12 11 11 10 9 10 10 10 10 10 11 11 11 12 13 14 15 16 16 15 15 14 14 13 11 10 9 9 7 4 2 3 3 4 5 7 7 8 8 8 8 9 9 9 8 9 9 9 11 12 12 12 13 13 11
11 12 16 17 17 16 15 17 16 10 9 10 11 10 9 14 13 10 11 13 11 10 13 14 9 6 9 10 9 10 12 12 11 10 9 8 8 10 11 11 11 11 11 11 11 11 13 14 14 15 14 14 14 14 14 13 12 11 10 10 7 5 3 3 3 5 6 6 7 7 6 6 7 8 8 8 8 8 9 10 10 10 11 13 13 12
12 12 15 18 18 18 16 15 16 12 9 10 13 13 12 13 13 14 16 14 10 10 13 15 9 7 11 10 9 9 10 10 8 8 8 9 8 8 9 10 10 11 10 10 10 10 11 12 12 13 14 14 14 13 12 12 13 12 11 10 9 7 5 5 5 5 6 6 6 6 6 6 6 8 8 7 8 8 8 9 9 8 10 12 14 14
10 13 15 18 18 18 16 13 16 15 9 8 12 15 14 12 13 15 17 13 8 8 13 16 10 6 10 10 10 10 9 9 7 7 7 7 8 8 8 8 9 9 9 9 10 11 11 11 12 13 13 13 13 12 11 11 12 12 11 11 10 8 7 7 7 7 7 8 7 7 8 8 8 9 10 9 8 9 9 9 9 9 10 12 15 15
10 14 17 18 17 16 14 12 15 17 12 6 12 15 13 10 12 14 15 12 9 8 13 17 14 7 7 9 12 13 10 10 8 7 7 6 8 8 8 9 9 9 9 8 9 10 11 12 12 12 13 12 12 11 11 11 11 11 11 11 11 9 7 8 9 10 10 9 8 8 9 9 9 10 10 9 8 9 10 10 10 10 11 12 14 15
12 17 17 18 15 13 13 13 15 17 14 8 13 16 10 9 13 15 13 11 9 9 10 15 16 9 6 9 11 13 12 11 10 9 7 7 8 8 8 8 9 9 9 9 9 10 11 12 12 12 12 11 11 11 11 10 10 10 10 11 10 10 8 9 11 11 11 11 9 9 9 9 10 10 10 10 9 9 9 10 10 10 11 12 14 15
12 13 15 16 13 11 13 15 15 17 14 10 12 16 11 9 10 10 11 10 10 10 9 13 15 10 6 10 11 11 12 11 10 8 7 8 8 8 8 8 8 8 8 9 9 10 11 11 11 11 11 11 11 11 10 10 10 10 10 11 11 10 9 9 10 11 11 11 10 10 10 10 10 10 11 11 11 11 10 11 11 10 12 13 14 15
9 7 10 13 13 12 13 15 14 17 16 8 7 13 12 10 8 7 8 8 9 10 11 15 17 13 7 8 10 10 9 11 11 8 7 8 8 7 7 7 7 7 7 7 8 9 10 10 10 10 10 10 11 11 10 10 10 10 11 11 11 11 10 10 10 10 11 11 11 11 11 11 11 12 13 13 13 13 12 13 12 12 12 12 13 14
12 11 11 12 14 13 13 14 13 16 18 9 7 11 11 9 9 7 7 7 8 9 11 15 19 17 10 6 10 9 10 13 12 10 9 9 8 7 7 6 6 6 7 7 7 8 9 9 10 10 10 10 11 11 11 11 10 10 11 11 11 11 11 11 11 11 11 11 10 11 11 12 12 13 13 14 14 14 14 15 14 13 12 12 12 13
13 13 13 12 15 15 13 12 12 13 15 10 9 12 10 9 8 8 9 9 8 8 9 14 17 14 4 3 9 13 14 14 12 11 9 8 7 7 6 6 6 6 6 7 6 7 8 9 9 10 10 10 10 11 11 11 11 10 11 11 11 11 11 11 11 11 11 11 10 11 11 12 12 12 13 14 15 15 15 16 16 14 14 15 13 12
11 11 14 14 13 14 15 12 10 11 13 12 10 11 10 9 9 9 9 8 8 9 8 12 15 9 6 6 10 14 14 13 13 12 9 8 7 7 6 6 6 6 6 6 6 6 7 8 9 9 9 9 10 11 11 11 12 11 11 12 12 12 12 12 12 11 11 11 10 11 11 12 12 12 12 13 14 14 14 16 17 15 15 15 14 13
12 10 13 15 11 13 16 13 11 11 11 12 11 10 10 9 8 8 8 8 10 9 8 12 11 5 8 6 9 13 14 12 12 11 10 9 7 7 7 6 6 6 7 6 6 7 8 8 9 9 10 10 11 12 12 12 12 12 12 13 13 13 13 13 13 12 12 11 11 11 11 11 12 12 12 13 13 14 14 15 16 16 16 16 15 15
14 10 13 16 12 15 17 14 14 13 10 10 11 11 10 10 8 7 7 5 6 9 9 7 2 4 6 9 11 12 12 12 11 11 11 10 8 7 6 6 6 6 6 7 7 7 9 9 9 10 11 11 11 12 13 12 12 12 12 13 13 13 14 14 14 13 12 12 12 11 11 12 12 12 12 13 14 16 15 15 16 17 18 17 16 16
12 9 14 18 13 16 17 14 13 12 9 8 11 11 10 11 10 7 6 2 3 9 9 6 5 5 6 8 10 12 12 11 11 10 10 10 8 7 6 6 6 6 7 7 7 7 9 10 10 11 11 12 12 12 12 12 12 12 12 13 13 14 14 14 14 14 13 13 12 12 12 13 13 13 13 13 14 16 16 15 16 17 18 17 16 17
10 8 13 20 16 16 17 16 14 13 11 8 10 11 10 11 11 8 7 6 7 9 7 7 8 9 8 6 9 13 13 12 11 11 11 10 9 7 7 7 7 7 7 8 8 8 9 10 10 10 10 11 11 11 12 12 12 11 12 12 13 14 15 15 14 14 14 14 13 13 14 14 14 13 13 14 14 15 16 17 17 17 18 16 15 16
12 8 11 18 17 15 16 16 14 14 17 12 9 11 10 9 10 9 8 9 10 10 7 10 11 9 8 8 12 14 14 14 13 12 11 10 9 8 8 8 8 8 7 7 8 8 9 10 10 10 10 11 11 11 12 12 12 12 12 13 13 14 14 14 14 14 13 13 13 14 15 15 14 14 14 14 15 15 16 17 18 18 18 17 16 15
11 7 8 14 16 14 14 13 12 12 16 14 9 11 11 8 8 9 8 7 9 10 8 10 12 8 6 9 16 17 15 15 13 12 10 10 9 8 8 8 8 8 7 7 7 7 9 10 10 10 10 11 12 12 12 12 13 13 13 13 14 14 14 13 13 13 13 13 14 15 15 15 15 14 14 15 16 16 16 16 17 18 19 19 18 16
9 7 6 12 16 14 11 11 13 12 13 11 8 10 11 8 7 8 8 8 9 9 8 9 9 3 2 6 15 17 15 14 13 12 10 9 10 9 8 8 8 8 8 8 7 8 9 9 10 11 11 12 12 13 13 13 14 14 14 14 14 14 14 14 14 14 14 14 14 15 15 16 16 15 16 17 16 16 16 17 17 18 19 19 19 18
8 7 7 9 13 13 11 13 16 15 14 12 9 10 11 10 9 9 10 11 10 8 8 9 6 3 4 1 11 14 12 13 13 12 11 11 11 10 9 9 8 8 8 8 8 8 9 9 10 11 12 12 13 13 14 14 14 14 15 15 15 15 15 14 14 14 15 15 16 16 16 16 16 16 17 18 17 16 17 18 18 19 19 20 20 20
4 5 8 9 10 12 14 17 18 15 15 15 12 10 10 10 10 9 9 10 10 10 10 6 6 4 6 2 10 13 11 13 13 12 12 12 11 11 10 9 9 9 9 9 8 9 9 10 10 11 12 13 13 14 15 15 15 15 16 16 15 16 15 15 15 15 15 16 17 17 17 17 17 17 18 18 18 18 19 19 19 19 19 20 20 20
2 5 8 8 8 10 11 13 13 10 12 14 14 12 11 11 12 10 8 7 7 10 10 5 6 4 4 6 10 13 12 12 12 11 12 12 11 11 11 10 10 9 9 9 8 9 10 10 11 12 13 14 14 15 15 16 16 16 16 17 16 16 16 16 16 17 17 17 18 18 18 18 18 18 19 19 19 19 20 20 19 19 19 20 20 20
5 7 8 7 9 9 7 8 10 11 11 10 10 13 15 15 16 13 9 6 5 10 12 6 4 4 5 7 10 13 14 13 12 11 11 11 11 10 10 10 9 9 9 9 9 9 10 11 12 13 13 14 14 14 15 16 16 16 17 18 17 17 17 17 17 18 18 18 18 18 18 19 19 19 20 20 20 21 20 20 20 20 20 20 21 20
6 8 7 8 10 11 10 10 10 11 10 8 11 15 16 17 16 13 9 6 5 10 12 6 6 8 9 11 12 13 14 14 13 11 10 10 10 10 9 9 8 8 9 9 9 9 9 11 13 13 14 14 14 14 14 15 16 16 17 18 18 17 18 18 18 18 18 18 18 19 19 20 19 20 21 21 21 21 21 21 21 21 21 21 21 21
6 7 5 4 5 6 8 11 12 12 11 12 14 15 14 14 14 11 9 7 6 7 4 5 14 15 12 13 14 13 14 14 13 12 11 10 10 10 9 9 8 8 8 8 8 9 10 11 12 14 14 14 14 14 14 14 15 16 17 17 17 17 17 18 18 18 18 18 19 19 20 20 20 21 22 22 22 21 21 21 21 21 21 21 22 22
6 6 5 2 2 2 3 3 11 14 14 16 15 13 11 12 11 10 9 6 5 5 1 7 17 19 14 14 15 13 13 13 12 12 11 10 10 9 9 9 9 9 9 9 9 9 10 10 12 13 13 13 14 14 13 14 15 15 16 17 17 17 17 18 18 18 18 18 19 20 20 20 20 21 22 22 22 22 22 21 21 22 22 22 22 23
7 6 6 6 6 4 1 3 9 11 9 11 14 12 11 12 11 11 11 5 3 1 6 11 15 17 15 14 14 13 13 13 12 12 10 10 10 10 10 10 10 9 9 9 10 10 10 10 11 12 13 13 14 14 14 14 15 15 16 17 17 17 17 17 18 18 18 19 20 20 20 20 20 21 21 22 22 23 23 23 23 23 23 23 23 24
7 4 6 8 9 9 7 5 8 9 7 5 7 9 8 9 9 7 6 6 6 8 13 17 17 15 14 14 14 13 12 12 12 11 10 11 11 10 10 10 9 9 10 10 10 10 10 11 11 12 13 13 14 15 15 14 15 16 16 17 17 17 17 17 17 18 19 19 20 20 20 20 21 21 21 22 23 24 24 24 24 23 24 24 24 26
4 4 8 9 7 9 10 9 8 11 13 13 10 8 7 7 9 9 10 12 13 14 17 20 19 14 10 12 15 13 12 12 12 12 11 10 11 11 10 10 10 10 10 10 10 9 10 11 12 12 13 13 14 15 14 14 15 15 16 17 17 17 17 17 17 18 18 19 19 20 20 20 21 21 21 22 23 23 24 25 24 24 24 25 25 25
5 5 7 8 6 6 10 12 13 14 16 15 12 10 8 8 9 9 9 10 14 18 20 17 13 10 10 13 14 13 13 13 13 13 11 10 10 10 10 10 10 10 10 9 9 9 9 11 12 12 13 13 13 13 14 15 15 15 15 16 16 17 16 16 17 17 17 18 19 19 20 20 21 21 22 23 23 23 24 24 25 25 25 26 27 26
8 6 5 6 7 7 8 11 13 13 10 8 7 7 5 6 10 12 12 12 14 15 12 8 9 11 13 14 15 14 14 14 13 11 10 10 10 10 9 9 10 10 10 9 9 10 10 11 12 12 13 13 12 12 14 14 14 14 14 15 16 16 16 16 16 16 17 18 19 19 20 21 21 21 22 23 23 23 23 24 25 25 25 26 27 27
11 10 6 5 6 7 9 9 10 9 6 3 3 4 4 5 11 13 14 13 12 10 9 11 14 16 15 14 16 16 14 13 12 11 10 10 9 9 9 9 9 9 9 9 9 10 11 12 12 12 13 12 10 11 12 12 12 13 13 14 15 16 16 17 17 17 17 18 18 19 20 21 21 21 22 22 22 23 23 24 25 26 25 25 26 27
11 10 6 5 5 6 9 9 8 6 3 2 1 2 6 10 14 16 15 12 12 14 18 19 18 17 15 14 15 15 14 14 13 11 11 10 9 9 9 9 9 9 8 8 8 9 11 12 12 12 12 10 10 11 12 12 12 13 13 13 14 15 16 17 17 17 18 18 19 19 20 20 21 21 22 22 22 23 23 23 24 25 25 25 26 26
9 8 6 5 6 7 7 6 5 4 5 4 4 6 9 11 12 13 13 11 10 12 17 19 18 17 17 16 15 14 15 15 12 10 9 9 8 8 8 8 9 8 8 8 8 9 11 11 11 11 10 10 11 12 11 11 12 12 12 13 14 15 16 16 17 18 18 19 20 20 20 20 21 21 22 22 22 23 23 23 23 23 24 23 24 24
5 5 6 6 6 7 6 3 3 5 6 6 6 7 8 6 5 6 8 7 7 10 15 18 19 18 18 17 16 16 15 14 11 8 8 9 8 9 9 9 9 9 9 8 8 9 9 10 10 10 10 10 11 10 11 11 12 12 12 13 14 14 15 16 17 18 18 19 20 20 20 20 21 21 22 22 23 23 23 23 23 23 23 22 22 23
4 4 5 5 5 6 6 5 4 5 4 5 8 8 4 1 4 9 9 6 6 10 15 17 19 19 18 17 17 16 13 11 9 7 8 9 9 9 10 10 10 9 9 8 7 8 7 8 9 10 9 10 10 10 11 12 12 12 13 13 14 14 15 16 17 18 18 18 19 20 21 21 21 21 21 22 22 23 23 22 22 23 23 23 22 23
3 3 2 4 6 6 5 5 5 3 2 4 10 10 6 4 5 7 6 4 7 12 14 16 18 18 17 17 16 14 9 7 8 8 9 10 10 10 10 10 9 9 8 7 7 7 7 7 8 9 9 10 10 11 11 11 12 13 13 14 14 14 15 16 16 17 17 17 18 19 20 21 21 21 21 22 22 22 22 22 22 22 23 23 23 23
3 4 3 5 6 6 5 4 3 2 3 6 9 9 7 5 5 7 5 5 12 14 14 16 17 16 16 16 14 10 6 5 8 10 11 12 12 10 9 9 8 8 8 7 6 6 6 7 7 8 9 10 11 11 11 11 12 13 13 13 14 14 15 14 15 15 16 17 18 18 19 21 21 21 21 21 21 22 22 22 22 23 22 22 23 24
5 5 5 6 6 6 7 5 4 4 5 8 8 7 7 5 5 6 2 7 15 16 15 15 16 16 15 14 9 6 4 7 11 13 13 13 12 11 10 9 8 7 8 7 5 6 6 6 6 7 9 10 10 10 11 11 11 12 13 13 14 14 14 14 14 15 16 16 17 18 19 20 21 21 20 21 21 21 22 23 23 23 23 22 22 23
4 4 4 5 5 5 5 4 5 4 4 6 7 7 4 3 4 2 5 12 17 17 16 15 15 15 14 10 8 7 10 14 16 15 13 12 12 11 11 10 9 8 8 8 5 4 5 5 6 7 8 9 9 10 11 11 12 12 12 13 14 14 14 14 14 14 15 16 17 18 18 19 21 21 21 21 22 22 23 23 23 23 23 23 22 23
1 2 4 2 1 4 6 5 3 2 4 7 9 6 1 1 4 8 10 14 16 16 16 15 14 13 12 10 12 13 15 17 16 14 13 13 13 12 11 10 10 9 8 7 6 4 5 6 7 7 8 8 9 9 10 11 12 12 12 13 13 13 13 14 14 14 15 15 17 18 18 18 20 21 21 22 22 22 23 23 24 24 24 24 23 23
5 4 2 3 4 3 4 4 3 4 7 8 6 5 4 4 9 11 12 12 13 14 14 13 12 12 12 13 15 15 16 16 15 15 14 13 12 12 11 10 10 8 7 6 6 6 6 7 7 7 7 8 8 9 9 10 11 11 11 12 12 12 13 13 14 15 14 15 16 17 17 18 18 19 20 22 22 22 22 23 24 25 24 24 24 24
6 5 4 6 6 5 5 6 6 8 8 6 5 7 10 10 11 12 13 13 13 12 12 11 13 14 14 16 16 15 15 15 15 15 14 12 12 12 11 10 10 8 7 7 6 6 7 7 7 7 8 8 8 8 8 9 9 10 10 11 11 11 12 13 14 14 15 15 16 16 17 18 18 18 18 20 22 23 22 22 23 25 25 24 23 24
5 4 4 6 8 9 9 8 8 9 9 8 8 9 10 11 11 13 14 13 12 13 12 12 14 16 16 16 16 15 15 15 15 14 12 11 12 12 12 11 10 9 8 7 6 6 7 8 8 7 8 7 7 8 8 8 9 10 10 10 10 10 11 12 14 15 15 16 16 16 17 17 18 17 17 18 21 23 22 23 23 23 23 23 23 23
3 2 3 6 8 5 5 6 9 10 10 10 10 10 10 11 12 12 12 12 13 14 14 14 16 17 17 16 16 16 16 16 15 13 11 11 11 12 12 11 10 9 9 7 6 6 7 8 8 7 7 7 7 8 8 8 9 9 9 9 10 10 10 11 13 14 15 16 16 16 17 17 17 18 17 15 17 19 21 22 22 21 21 22 22 22
3 1 5 7 5 4 7 10 10 11 11 10 9 9 10 11 12 13 13 13 14 15 16 18 18 17 16 16 16 17 17 15 14 13 11 11 12 13 12 11 11 10 9 7 6 7 7 8 8 7 7 7 7 7 8 8 9 9 9 9 10 11 10 10 12 13 14 16 16 16 17 17 17 18 18 15 12 13 17 19 19 17 17 19 20 20
3 4 5 9 9 9 10 12 12 11 11 9 9 10 10 11 13 14 15 15 16 17 18 19 19 18 18 18 18 17 16 14 14 13 12 12 13 13 13 12 12 11 10 9 8 8 8 8 7 7 7 7 7 7 7 8 8 8 8 9 10 11 11 10 11 13 14 15 16 15 16 17 17 17 19 16 11 9 11 15 17 15 13 15 19 20
3 6 7 7 7 6 8 13 13 10 9 9 9 11 11 12 14 16 16 17 17 18 18 17 18 20 20 21 20 17 14 13 14 15 14 13 13 14 13 13 12 11 11 10 9 9 8 8 7 7 8 7 7 7 8 8 8 8 8 9 10 10 11 11 11 12 13 14 15 15 15 16 16 16 17 18 15 9 7 9 13 14 13 14 16 19
2 5 4 3 3 6 12 16 12 8 9 11 11 12 12 13 15 16 17 17 17 18 18 18 18 19 18 19 20 18 14 14 16 16 15 15 15 15 14 13 12 12 11 10 9 9 8 7 7 8 8 7 7 7 8 8 8 8 8 9 10 10 11 11 11 12 13 13 13 14 14 15 16 16 16 17 18 16 11 8 7 9 12 13 14 15
Wind_Direction
194 200 204 212 207 205 204 207 219 225 222 203 197 211 207 203 199 175 173 174 180 195 191 181 155 134 128 111 111 119 130 150 139 163 172 110 73 64 83 86 76 68 63 66 67 64 64 67 70 70 75 90 97 87 88 83 2 302 241 225 190 231 260 243 244 245 239 239 244 248 254 264 270 271 270 268 267 268 272 270 258 249 236 222 215 209
198 210 208 210 210 209 206 208 220 229 243 221 200 203 203 208 196 153 156 168 183 203 186 165 153 137 125 110 105 108 109 104 97 97 94 86 74 69 76 75 73 68 60 60 60 55 51 47 46 51 59 65 68 64 59 49 30 29 43 83 117 175 233 240 254 259 250 250 260 267 271 280 286 286 283 282 278 273 276 273 259 253 247 237 226 216
202 216 212 207 212 213 205 209 218 222 229 223 206 205 202 203 183 141 153 176 191 203 166 152 149 137 128 111 104 104 94 78 72 73 72 75 75 70 67 69 72 66 59 56 52 46 42 37 35 40 45 45 47 50 46 39 38 37 28 26 18 237 232 242 257 267 271 272 278 283 286 293 299 297 298 296 287 278 275 269 261 258 253 246 237 226
201 212 211 205 212 212 200 206 212 210 216 220 214 207 200 202 190 153 163 181 190 188 166 164 155 141 135 118 106 103 98 90 83 78 74 75 75 71 68 66 66 64 58 54 51 45 39 35 35 38 39 41 43 44 41 33 34 34 26 26 12 303 267 267 255 261 279 288 288 289 292 297 298 295 293 290 283 278 278 276 270 263 255 250 244 235
210 205 204 203 207 208 202 203 203 198 206 219 223 217 210 203 183 152 164 178 187 186 176 176 168 160 162 147 129 118 110 105 98 89 78 73 75 75 72 66 62 62 58 55 52 44 38 35 35 36 36 41 42 39 36 30 31 35 32 30 24 16 4 321 287 271 273 277 278 278 283 290 292 290 284 281 281 276 274 278 275 268 261 257 250 239
218 201 196 201 202 206 208 200 197 200 202 211 223 228 222 202 176 165 172 176 187 188 180 187 190 179 179 166 147 140 120 104 99 101 90 75 74 73 68 66 63 61 59 58 55 48 43 39 36 37 37 39 39 33 30 27 28 32 32 30 25 21 16 355 332 309 286 272 265 259 258 265 271 276 277 282 285 277 267 267 269 267 264 261 256 245
218 197 195 203 197 199 206 199 196 203 212 208 207 222 230 211 186 172 171 176 193 193 183 195 209 180 176 175 158 151 132 115 106 100 96 82 75 73 68 67 66 64 62 60 58 53 47 43 40 39 39 38 37 31 25 25 26 27 26 23 20 16 9 359 346 330 309 291 279 267 265 269 272 274 283 291 287 277 270 267 263 259 258 259 258 251
211 203 197 198 192 194 205 203 196 202 220 209 179 205 234 219 189 169 171 192 203 191 183 198 217 204 176 177 162 159 150 138 127 104 98 91 80 77 75 72 70 68 66 63 60 55 50 46 44 41 40 39 37 33 30 30 27 26 25 19 16 14 9 0 347 338 330 318 305 289 280 283 286 285 289 294 285 275 270 267 263 256 256 257 256 252
201 211 196 188 194 199 206 207 196 197 219 223 176 189 223 224 197 178 184 208 204 196 192 197 214 218 180 175 166 166 169 158 140 121 109 101 91 84 80 78 77 74 69 67 62 56 51 47 45 43 43 41 38 35 34 33 29 28 26 22 19 15 7 360 350 342 340 337 326 308 297 294 296 293 290 290 285 279 271 266 263 254 251 250 250 249
198 213 193 186 203 206 204 206 196 193 216 235 188 180 200 223 209 189 199 214 206 211 207 192 207 222 189 169 170 179 184 173 147 128 118 109 100 92 87 82 82 80 73 69 65 59 52 46 45 42 41 39 34 31 30 29 29 28 25 24 23 18 8 0 353 346 343 341 333 322 314 307 303 298 292 289 285 281 275 269 265 256 251 249 252 253
175 182 195 199 216 211 203 205 194 193 209 219 175 180 195 208 212 208 215 226 220 218 211 197 202 214 206 168 181 198 184 159 141 133 133 117 105 97 92 85 81 79 72 68 64 57 49 41 40 37 35 34 29 23 22 22 24 24 23 20 19 17 10 3 358 353 348 343 336 332 328 317 310 305 299 295 290 286 280 274 268 262 258 255 258 261
178 180 203 208 218 214 205 204 191 194 205 190 168 194 194 189 203 212 215 229 234 222 209 204 204 209 219 198 185 175 138 133 136 138 137 121 109 101 93 83 77 70 62 59 54 48 40 34 33 31 30 30 25 20 18 17 19 19 19 15 13 12 6 2 359 354 350 346 340 336 330 322 316 308 302 298 295 295 291 285 279 275 273 268 264 263
199 194 199 201 212 212 207 200 184 193 204 192 187 201 193 184 195 202 205 210 227 234 215 210 213 210 205 105 128 126 122 127 131 131 129 122 114 104 91 77 71 66 60 54 48 43 37 32 30 27 28 29 26 25 22 21 20 19 18 13 11 10 5 1 355 350 348 344 341 335 327 324 320 310 302 298 297 298 299 296 291 289 285 278 272 266
201 195 198 201 204 206 214 207 181 189 201 195 196 199 194 190 189 197 204 200 213 233 227 221 221 192 116 86 99 110 117 122 123 125 121 114 109 99 90 79 70 67 64 57 50 48 41 37 34 30 32 33 31 30 27 27 25 22 21 16 14 12 6 2 355 351 348 342 338 332 326 324 322 317 311 305 301 300 298 296 295 294 289 279 275 272
198 196 198 202 194 193 215 220 192 191 198 196 205 210 206 204 195 196 205 203 205 210 210 221 224 163 127 135 119 114 117 119 123 125 116 106 105 100 91 82 75 70 66 61 57 53 47 43 40 37 37 35 34 32 29 29 28 25 24 20 18 15 9 5 359 354 349 343 337 331 329 328 324 321 318 314 310 303 293 289 290 289 284 280 276 274
203 208 191 195 196 185 205 221 199 191 197 197 208 215 212 210 197 192 212 230 222 206 198 201 197 74 113 133 128 128 127 128 132 127 117 110 108 106 94 82 76 69 66 63 58 54 50 47 43 39 38 35 33 33 29 28 28 26 25 22 20 17 12 9 4 359 355 347 340 334 334 333 328 323 318 315 314 309 300 290 286 282 280 282 281 278
202 211 181 184 199 190 198 217 204 195 196 191 208 216 213 216 213 202 207 251 261 218 196 153 111 108 132 134 138 145 140 140 140 130 122 115 113 109 95 86 80 72 69 65 61 56 52 49 46 41 39 37 33 31 29 27 26 26 23 21 19 16 12 9 6 2 359 352 347 343 339 335 330 325 320 316 313 312 309 299 290 284 284 285 285 283
202 210 176 180 197 192 194 211 212 212 213 196 201 211 211 220 227 222 206 201 217 216 190 156 149 156 166 152 149 155 149 148 144 133 128 122 118 111 97 92 86 78 76 70 66 62 56 52 49 44 41 42 38 34 31 27 25 23 21 19 18 15 11 9 5 1 357 354 352 349 344 340 335 328 322 318 315 311 308 303 298 294 290 288 287 288
205 205 174 182 195 184 184 206 211 212 222 223 207 204 210 216 218 220 214 209 212 214 201 179 169 181 199 168 158 165 157 151 150 143 139 128 119 114 102 97 90 83 79 73 68 63 58 55 49 45 43 41 40 36 32 29 25 22 21 20 18 14 10 7 4 359 355 353 352 350 347 345 343 337 329 323 319 315 307 304 304 303 299 294 289 287
211 214 176 182 193 184 180 200 207 199 213 229 225 210 217 221 215 217 216 210 213 215 210 192 181 195 210 166 165 169 158 154 155 147 138 125 116 113 104 99 91 84 78 71 69 64 58 55 50 46 44 41 40 36 32 31 27 23 23 22 18 14 10 7 3 358 356 355 352 350 348 347 347 344 340 334 327 320 314 311 310 309 309 305 298 288
208 221 190 183 188 190 186 195 205 197 194 212 223 210 210 210 212 219 215 214 220 217 212 206 193 169 62 155 166 162 154 155 151 140 132 120 114 109 102 99 90 83 79 71 68 63 57 54 50 46 44 42 40 37 34 31 29 25 23 21 17 13 9 6 3 359 358 357 354 352 351 350 349 347 346 343 336 329 323 321 317 313 312 312 308 301
199 205 190 189 188 191 194 195 205 207 194 193 211 217 207 199 201 210 213 216 219 219 221 216 182 89 16 179 158 149 146 148 143 137 128 117 114 109 100 95 86 82 79 71 67 62 56 52 49 45 43 42 39 34 32 30 29 26 24 21 18 14 10 7 3 360 359 359 357 356 354 352 351 349 348 346 343 338 332 326 322 317 314 312 310 309
199 207 190 199 199 192 193 196 204 217 208 198 208 222 213 203 209 214 214 215 215 222 229 208 134 79 2 51 134 135 137 138 137 132 123 117 114 109 103 96 88 83 78 73 69 63 57 52 48 45 42 41 38 33 29 27 27 25 21 19 18 15 12 9 5 2 2 1 359 359 357 355 354 351 350 349 346 342 337 331 326 322 318 314 311 309
149 218 196 198 204 196 194 193 196 217 225 211 205 213 216 209 211 223 228 216 216 229 226 180 124 110 26 57 114 127 128 129 127 123 122 119 114 111 107 100 94 88 81 78 72 66 61 54 49 45 41 39 37 32 29 26 24 22 19 16 14 12 10 9 7 5 5 3 1 1 359 357 355 354 352 351 347 344 340 336 332 328 323 317 312 308
174 213 199 192 196 189 195 199 193 203 220 221 206 209 220 216 208 219 234 217 216 234 225 192 128 137 114 96 112 122 124 124 122 121 121 118 116 115 109 103 99 94 86 81 75 69 61 54 49 45 40 38 35 31 30 27 23 20 18 15 13 11 9 9 8 6 6 4 2 2 1 359 357 356 354 352 349 345 342 340 337 333 328 322 316 309
190 211 203 205 203 189 190 200 199 199 205 218 217 212 219 225 217 212 214 202 206 229 227 199 128 127 131 128 127 128 128 125 124 123 119 118 120 118 114 109 102 95 88 82 78 71 62 55 50 45 40 37 33 30 28 26 23 20 17 14 13 11 9 7 6 7 7 5 4 4 2 1 360 357 356 354 351 348 345 343 341 338 334 329 323 317
192 209 204 230 238 214 205 201 195 195 198 208 216 212 214 230 235 225 212 206 207 216 228 133 134 136 141 143 139 137 133 129 128 127 121 123 124 120 118 112 104 98 91 83 78 71 64 57 50 45 40 35 32 29 27 26 22 19 16 14 13 11 9 7 5 7 8 6 7 6 4 3 1 359 358 356 353 351 348 346 345 343 341 336 331 327
195 199 182 181 241 282 318 234 193 194 203 206 208 207 207 216 232 236 221 215 227 226 171 123 137 140 147 152 145 140 138 132 130 129 127 129 127 123 119 112 106 100 92 84 75 67 63 56 48 43 37 33 31 28 26 26 22 18 15 12 12 10 9 9 6 6 8 8 9 8 5 4 1 359 359 357 356 355 353 350 348 347 345 343 340 338
201 190 173 173 175 164 339 255 200 192 206 209 200 202 212 211 213 224 223 226 313 292 144 141 140 137 145 151 144 140 139 132 130 129 130 132 127 122 120 113 107 99 90 82 71 62 57 53 47 42 36 32 29 26 24 22 20 17 14 12 12 10 8 8 7 6 8 10 10 9 6 5 3 1 360 359 359 359 357 355 353 351 350 349 347 346
205 178 171 178 169 160 157 171 176 162 143 136 160 178 201 203 194 196 188 151 107 107 131 137 131 128 138 142 135 134 132 127 129 131 133 133 127 123 119 111 105 97 85 76 68 60 54 50 44 39 36 32 28 26 24 21 19 14 11 12 11 8 8 8 7 7 9 11 11 9 7 6 4 2 2 1 1 0 360 359 357 355 354 353 351 351
196 171 177 178 162 152 148 145 147 135 114 94 90 108 120 127 127 111 105 114 115 116 125 127 121 117 125 128 125 127 127 128 132 132 132 131 126 123 119 111 105 96 84 76 68 61 54 49 42 36 33 30 29 26 20 17 19 15 10 11 11 9 7 8 8 8 10 12 11 9 8 7 6 4 4 3 2 1 2 2 1 0 359 358 357 355
186 184 182 173 154 145 150 149 137 117 103 87 68 65 81 94 99 96 94 107 120 127 127 126 125 129 133 129 125 127 131 132 133 131 130 129 125 124 119 110 104 93 84 78 69 61 55 49 41 33 29 27 28 25 18 15 18 15 10 10 11 10 9 10 11 10 11 13 12 10 9 8 7 6 6 5 4 3 3 3 3 3 3 2 1 359
181 179 183 175 155 144 150 149 140 134 126 103 61 31 36 86 97 92 84 91 116 134 139 136 139 142 140 136 131 132 134 133 132 132 131 129 127 124 115 107 100 91 83 75 67 60 53 47 41 32 30 29 24 21 20 17 17 16 12 10 12 12 12 15 14 11 12 13 13 12 10 9 8 8 6 5 5 4 3 5 6 5 5 3 2 2
184 180 185 182 162 153 160 164 166 171 169 124 56 351 2 74 99 98 88 85 92 98 94 103 124 136 140 139 135 134 135 133 130 130 129 129 129 125 119 112 102 96 90 78 69 61 53 47 40 33 34 32 23 21 22 19 18 18 14 12 15 15 16 18 17 15 13 12 13 13 11 11 10 9 8 7 5 4 4 4 5 6 6 5 4 5
186 177 180 188 175 157 161 175 184 177 150 113 120 43 57 80 94 92 83 76 83 92 98 108 124 135 134 131 130 129 128 126 123 124 126 129 130 129 126 117 105 98 92 81 71 63 54 47 40 38 36 26 21 25 25 20 20 20 18 17 18 18 18 19 20 19 16 13 13 13 11 11 10 9 9 9 7 7 6 3 4 4 4 5 7 8
190 175 180 182 165 157 166 185 183 138 115 125 137 119 109 116 118 99 76 65 81 104 114 120 127 129 126 126 126 123 123 120 114 114 121 128 131 127 119 111 103 95 87 79 69 58 52 46 41 41 35 24 26 32 27 22 21 22 22 21 21 21 20 20 21 21 19 16 15 14 11 10 10 9 9 9 9 9 7 5 5 3 0 0 3 6
200 176 174 164 161 170 162 132 120 137 145 156 162 149 133 139 148 117 89 79 93 113 124 127 128 128 127 127 127 125 123 116 108 109 123 128 124 118 113 111 108 101 91 83 73 60 52 50 49 46 39 34 36 36 31 26 24 25 27 25 23 23 22 22 22 21 20 19 18 16 14 11 10 9 8 9 10 9 8 7 6 4 3 1 359 1
192 186 190 177 172 174 152 127 142 163 166 169 170 166 152 99 100 108 107 106 116 128 133 133 132 132 133 132 134 137 132 119 115 128 138 133 126 123 121 116 112 107 100 91 83 73 61 55 54 51 47 45 41 38 37 34 29 28 30 27 23 23 24 24 23 20 19 19 17 16 16 13 11 10 10 11 10 9 8 7 6 5 6 5 2 1
156 157 217 213 189 175 172 174 172 156 91 140 157 164 175 176 145 139 141 139 143 145 143 139 137 138 140 141 145 152 150 134 134 144 146 141 134 129 125 119 120 121 112 101 95 89 78 68 61 54 51 48 44 38 36 37 35 31 30 28 25 23 24 23 22 19 18 16 16 16 16 15 12 11 12 13 13 11 9 8 7 5 5 7 7 5
186 164 193 217 194 173 181 177 138 77 75 120 143 155 159 159 176 201 217 169 155 157 150 145 144 143 146 148 153 167 175 154 146 147 145 143 136 131 131 129 129 125 112 103 98 92 87 77 64 57 52 48 45 42 36 36 37 35 31 28 26 25 24 20 19 20 18 15 15 17 18 17 14 13 13 12 12 14 12 10 10 8 6 8 8 7
190 180 187 200 178 169 189 170 106 83 104 124 141 148 142 152 190 216 211 137 148 153 149 147 147 144 147 152 160 171 141 119 131 139 142 143 139 136 136 132 123 112 103 99 88 81 86 79 62 59 55 47 44 44 39 36 36 35 32 29 27 26 23 17 16 19 19 18 17 17 19 20 17 16 16 14 12 14 15 12 11 11 9 8 8 8
182 180 192 197 180 187 196 149 110 103 119 142 147 133 127 181 191 139 104 124 140 146 146 147 145 143 145 144 135 126 113 115 127 138 143 144 141 139 139 133 123 112 103 100 97 96 102 96 75 63 56 49 45 43 41 37 34 32 30 28 26 26 24 19 16 17 19 21 20 18 19 21 21 20 19 17 14 14 16 14 11 11 11 10 8 9
52 220 197 156 129 210 188 150 130 135 149 167 161 133 81 282 121 111 117 129 136 139 141 142 142 142 140 126 118 120 121 124 132 138 140 140 140 139 138 130 123 122 120 119 123 129 120 101 82 67 57 49 44 40 38 37 33 29 27 26 25 25 25 22 19 18 20 21 21 20 18 18 21 23 22 20 18 17 18 17 13 11 12 11 9 8
13 316 200 88 16 280 193 139 89 99 132 162 167 125 96 104 118 125 130 131 134 139 140 140 141 141 135 127 125 127 128 131 135 138 139 140 140 139 136 134 134 136 135 123 109 106 104 93 82 72 60 49 42 36 33 33 32 27 25 24 23 24 27 25 22 21 22 22 22 21 19 18 19 22 21 19 19 18 19 19 17 14 12 12 11 10
33 27 77 74 45 36 78 93 89 93 111 126 115 107 111 113 121 130 131 131 137 140 138 136 136 134 132 131 131 131 132 135 137 139 139 138 139 139 140 143 143 136 124 111 98 96 97 89 79 70 59 47 39 35 31 29 30 29 25 22 22 26 27 24 25 24 21 22 24 21 20 19 18 21 23 20 18 19 18 19 20 17 13 13 13 12
61 52 71 94 102 87 72 82 100 101 105 109 103 106 112 114 122 130 131 134 137 136 135 137 135 134 134 135 135 134 135 138 138 137 139 139 140 142 141 139 137 128 119 111 97 95 96 91 84 72 58 45 36 34 31 27 29 30 26 21 21 27 28 25 27 28 23 21 23 22 22 21 17 18 24 22 19 20 19 19 21 20 17 17 16 15
77 16 74 121 149 137 91 105 120 116 116 115 107 108 113 117 124 129 130 132 133 132 135 134 132 135 137 138 137 135 136 138 138 139 143 144 141 140 137 132 128 122 116 111 104 104 102 93 82 67 53 42 34 32 29 27 30 31 29 24 21 23 28 28 27 29 26 23 22 20 21 22 19 16 20 23 22 22 21 20 22 24 24 23 20 18
111 137 109 106 116 108 112 131 134 122 120 122 117 118 120 120 123 124 124 127 131 132 133 132 134 139 139 137 137 137 137 141 143 143 144 142 138 136 133 129 126 121 118 118 114 105 95 83 70 56 46 40 34 33 31 27 28 30 31 30 25 21 25 28 27 28 29 26 23 20 18 21 21 18 18 24 30 30 26 24 27 33 35 33 29 26
127 154 112 92 97 103 118 138 138 124 124 128 125 122 122 125 128 125 123 128 133 133 132 133 136 138 138 138 140 140 139 141 143 142 139 136 135 133 129 127 126 123 121 117 105 92 84 74 60 50 46 43 37 39 39 32 30 32 34 36 32 24 20 23 25 27 30 28 24 20 18 19 20 18 17 20 33 52 48 36 35 43 48 43 38 36
168 146 113 112 135 141 147 156 153 139 136 142 137 130 129 131 133 131 131 136 139 136 135 136 137 137 139 141 141 140 139 140 140 138 134 130 129 128 127 127 127 123 121 117 107 97 86 72 61 54 50 48 45 43 41 36 35 39 38 38 37 29 23 23 23 23 27 29 25 19 17 17 18 17 16 17 23 40 60 47 37 40 43 41 39 37
87 120 123 161 158 134 151 165 167 142 131 139 141 135 132 135 137 137 138 139 138 137 138 139 138 138 141 141 140 138 136 135 134 132 128 126 128 129 130 131 129 125 123 119 110 101 90 76 67 60 51 47 47 44 42 44 44 45 42 38 37 34 32 32 29 21 19 22 23 19 15 15 16 15 13 15 16 17 20 29 35 33 29 27 30 33